Regional Weather Roundup
Issued by NWS

Home | Current Version | Previous Version | Text Only | Print | Product List | Glossary On
Versions: 1 2 3 4 5 6 7 8 9 10 11 12 13 14 15 16 17 18 19 20 21 22 23 24 25 26 27 28 29 30 31 32 33 34 35 36 37 38 39 40 41 42 43 44 45 46 47 48 49
000
ASUS45 KBOU 011907
RWRCO

WEATHER ROUNDUP FOR COLORADO
NATIONAL WEATHER SERVICE DENVER/BOULDER CO
100 PM MDT WED OCT 01 2014

NOTE: "FAIR" INDICATES FEW OR NO CLOUDS BELOW 12000 FEET WITH NO
SIGNIFICANT WEATHER AND/OR OBSTRUCTIONS TO VISIBILITY.

COZ001>005-013-030-031-012000-
...NORTHWEST COLORADO...

CITY           SKY/WX    TMP DP  RH WIND       PRES   REMARKS
CRAIG          CLOUDY    45  37  73 CALM      30.02F
HAYDEN         CLOUDY    39  36  87 SE10      30.03S
MEEKER         CLOUDY    44  38  79 VRB3      30.02F
MOUNT WERNER   NOT AVBL
STEAMBOAT SPGS CLOUDY    37  35  90 CALM      30.02F
WALDEN         CLOUDY    34  32  93 N6        30.02S WCI  29
$$

COZ006>008-011-012000-
...WEST CENTRAL VALLEYS...

CITY           SKY/WX    TMP DP  RH WIND       PRES   REMARKS
GRAND JUNCTION CLOUDY    52  42  69 CALM      30.00F
MONTROSE       LGT RAIN  46  44  93 SE14      30.05F
EAGLE          PTSUNNY   45  39  81 CALM      30.04S
RIFLE          CLOUDY    48  40  73 CALM      30.02F
DELTA          RAIN      52  42  69 CALM      30.03F
NUCLA          CLOUDY    50  45  81 E6        30.06S
$$

COZ017>023-064>068-012000-
...SOUTHWEST COLORADO...

CITY           SKY/WX    TMP DP  RH WIND       PRES   REMARKS
DURANGO        MOSUNNY   59  39  47 CALM      29.98F
CORTEZ         PTSUNNY   63  38  39 W15G21    29.99S
PAGOSA SPRINGS MOSUNNY   53  38  56 S5        30.04F
TELLURIDE      TSTM     N/A N/A N/A SW5       30.11R VSB 1/4
WOLF CREEK PAS FOG       30  30 100 SW9G25    30.17F VSB<1/4 WCI  22
$$

COZ009-010-012-014-032>034-037-058>063-012000-
...CENTRAL COLORADO...

CITY           SKY/WX    TMP DP  RH WIND       PRES   REMARKS
ASPEN          FLURRIES  35  33  92 S5        30.05F WCI  31
BUENA VISTA    CLOUDY    52  33  47 SE21G26   29.96S
COPPER MTN     SNOW      34  30  86 W14G24    30.12R VSB 1/2 WCI  24
BERTHOUD PASS  CLOUDY    28  27  93 MISG      30.12F
COTTONWOOD PAS MOSUNNY   50  23  34 W30G46    30.02F
GUNNISON       PTSUNNY   52  34  50 W17G23    30.04F
KREMMLING      RAIN      41  36  81 N5        30.03S
LEADVILLE      LGT SNOW  34  31  88 W12G23    30.06R FOG     WCI  25
SALIDA         CLOUDY    48  40  73 SE8       30.06F
SUNLIGHT       FOG       34  34 100 CALM      30.12F VSB 1
WILKERSON PASS NOT AVBL
$$

COZ069>075-012000-
...SAN LUIS VALLEY/SANGRE DE CRISTO MOUNTAINS...

CITY           SKY/WX    TMP DP  RH WIND       PRES   REMARKS
ALAMOSA        PTSUNNY   58  34  40 CALM      29.99F
LA VETA PASS   PTSUNNY   45  30  57 SW9       30.10F
SAGUACHE       PTSUNNY   54  36  50 SE7       30.00F
$$

COZ035-036-038>040-012000-
...NORTHERN COLORADO FRONT RANGE...

CITY           SKY/WX    TMP DP  RH WIND       PRES   REMARKS
DENVER INTL AP PTSUNNY   63  40  42 E18       29.84F
DMNS CITY PARK   N/A     64  34  32 N3        29.83F
AURORA         PTSUNNY   64  35  35 VRB5      29.85F
FRONT RANGE AP PTSUNNY   66  41  39 E18G24    29.86
ERIE MUNI ARPT PTSUNNY   64  36  36 NE3       29.84F
BOULDER MUN AP CLOUDY    61  37  41 CALM      29.86S
CENTENNIAL     PTSUNNY   64  34  32 S9        29.84F
BROOMFIELD     CLOUDY    63  37  39 NE6       29.86F
FORT COLLINS   PTSUNNY   64  43  45 E12G20    29.86F
LONGMONT       PTSUNNY   65  40  40 CALM      29.86F
$$

COZ041-046-047-076>085-087-088-012000-
...PIKES PEAK/PALMER DIVIDE AND SOUTHERN FOOTHILLS...

CITY           SKY/WX    TMP DP  RH WIND       PRES   REMARKS
COLO. SPRINGS  MOSUNNY   64  33  31 S16       29.90F
A. F. ACADEMY  MOSUNNY   63  31  29 SE16G22   29.90F
ELLICOTT       NOT AVBL
FALCON         MOSUNNY   62  30  29 S14G20    29.93F
FORT CARSON    MOSUNNY   65  33  29 SE13G21   29.88F
LIMON          MOSUNNY   65  37  35 E9        29.87F
MONUMENT HILL  PTSUNNY   61  32  33 SE17G24   29.91F
TRINIDAD       SUNNY     70  31  23 E13       29.87F
$$

COZ042>045-048>051-090-091-012000-
...NORTHEAST COLORADO...

CITY           SKY/WX    TMP DP  RH WIND       PRES   REMARKS
GREELEY ARPT   MOSUNNY   66  41  39 SE13      29.86F
AKRON          MOSUNNY   65  44  46 NE12      29.87F
BURLINGTON     SUNNY     71  39  31 VRB7      29.85F
WRAY           MOSUNNY   72  43  34 NE5       29.83F
STERLING       MOSUNNY   70  46  43 NE9       29.84F
HOLYOKE        MOSUNNY   73  46  38 NE7       29.84F
FORT MORGAN    MOSUNNY   68  38  33 E8        29.87S
$$

COZ086-089-092>099-012000-
...SOUTHEAST COLORADO...

CITY           SKY/WX    TMP DP  RH WIND       PRES   REMARKS
PUEBLO         MOSUNNY   71  33  24 E9G22     29.83F
LA JUNTA       SUNNY     72  38  29 VRB5      29.83F
LAMAR          SUNNY     74  43  32 E8        29.81F
SPRINGFIELD      N/A     73  37  27 VRB3      29.84F
$$



USA.gov is the U.S. government's official web portal to all federal, state and local government web resources and services.